EW6418 Weather Reports


Display with metric or nautical units.
time (UTC)temp
F
wind
direction
speed
MPH
gust
MPH
rain 1hr
in
rain 24hr
in
rain mn
in
humidity
%
barometer
mb
20260508170024 66 332 10.0 17.0 0.00 0.00 0.00 100 1018.7
20260508164527 66 341 9.0 15.0 0.00 0.00 0.00 100 1018.9
20260508163019 66 332 7.0 15.0 0.00 0.00 0.00 100 1019.0
20260508161519 65 342 10.0 16.0 0.00 0.00 0.00 100 1019.3
20260508160016 64 355 6.0 17.0 0.00 0.00 0.00 100 1019.4
20260508154509 63 330 10.0 15.0 0.00 0.00 0.00 100 1019.7
20260508153007 63 355 10.0 16.0 0.00 0.00 0.00 100 1020.0
20260508151506 63 331 7.0 15.0 0.00 0.00 0.00 100 1020.0
20260508150005 61 347 9.0 17.0 0.00 0.00 0.00 100 1020.2
20260508144600 60 348 9.0 16.0 0.00 0.00 0.00 100 1020.3
20260508143103 60 360 9.0 15.0 0.00 0.00 0.00 100 1020.4
20260508141552 57 329 8.0 12.0 0.00 0.00 0.00 100 1020.4
20260508140048 54 314 6.0 14.0 0.00 0.00 0.00 100 1020.6
20260508134545 53 355 8.0 13.0 0.00 0.00 0.00 100 1020.7
20260508133041 51 331 5.0 11.0 0.00 0.00 0.00 100 1020.7
20260508131540 50 360 5.0 10.0 0.00 0.00 0.00 100 1020.9
20260508130101 50 318 4.0 9.0 0.00 0.00 0.00 100 1020.8
20260508124536 49 327 6.0 11.0 0.00 0.00 0.00 100 1020.9
20260508123035 49 314 4.0 10.0 0.00 0.00 0.00 100 1020.8
20260508121533 47 341 3.0 6.0 0.00 0.00 0.00 100 1020.7
20260508120027 46 335 2.0 5.0 0.00 0.00 0.00 100 1020.8
20260508114523 45 321 1.0 5.0 0.00 0.00 0.00 100 1020.8
20260508113020 44 360 2.0 4.0 0.00 0.00 0.00 100 1020.5
20260508111520 41 360 1.0 3.0 0.00 0.00 0.00 100 1020.3
20260508110016 40 294 0.0 2.0 0.00 0.00 0.00 100 1020.4
20260508104523 39 293 0.0 1.0 0.00 0.00 0.00 100 1020.2
20260508103020 39 293 0.0 2.0 0.00 0.00 0.00 100 1020.2
20260508101514 39 292 0.0 2.0 0.00 0.00 0.00 100 1020.0
20260508100015 38 360 0.0 2.0 0.00 0.00 0.00 100 1020.1
20260508094512 38 360 0.0 0.0 0.00 0.00 0.00 100 1020.1
20260508093012 38 360 0.0 0.0 0.00 0.00 0.00 100 1020.1
20260508091515 38 360 0.0 0.0 0.00 0.00 0.00 100 1020.1
20260508090015 39 360 0.0 0.0 0.00 0.00 0.00 100 1020.0
20260508084509 39 360 0.0 0.0 0.00 0.00 0.00 100 1020.0
20260508083009 38 360 0.0 0.0 0.00 0.00 0.00 100 1020.0
20260508081508 38 360 0.0 0.0 0.00 0.00 0.00 100 1019.9
20260508080008 38 360 0.0 0.0 0.00 0.00 0.00 100 1019.8
20260508074506 38 360 0.0 0.0 0.00 0.00 0.00 100 1019.9
20260508073005 38 360 0.0 0.0 0.00 0.00 0.00 100 1019.9
20260508071507 39 360 0.0 0.0 0.00 0.00 0.00 100 1019.9
20260508070013 39 360 0.0 0.0 0.00 0.00 0.00 100 1020.0
20260508064501 39 360 0.0 0.0 0.00 0.00 0.00 100 1020.3
20260508063101 39 360 0.0 0.0 0.00 0.00 0.00 100 1020.4
20260508061605 39 360 0.0 0.0 0.00 0.00 0.00 100 1020.1
20260508060059 39 360 0.0 0.0 0.00 0.00 0.00 100 1020.3
20260508054557 40 126 0.0 0.0 0.00 0.00 0.00 100 1020.4
20260508053105 40 360 0.0 0.0 0.00 0.00 0.00 100 1020.3
20260508051555 40 360 0.0 0.0 0.00 0.00 0.00 100 1020.5
20260508050059 41 124 0.0 0.0 0.00 0.00 0.00 100 1020.4
20260508044552 41 124 0.0 0.0 0.00 0.00 0.00 100 1020.4
20260508043101 41 360 0.0 0.0 0.00 0.00 0.00 100 1020.4
20260508041549 42 123 0.0 0.0 0.00 0.00 0.00 100 1020.4
20260508040047 42 123 0.0 0.0 0.00 0.00 0.00 100 1020.2
20260508034545 42 123 0.0 2.0 0.00 0.00 0.00 100 1020.2
20260508033045 43 124 0.0 2.0 0.00 0.00 0.00 100 1020.3
20260508031551 43 124 0.0 1.0 0.00 0.00 0.00 100 1020.1
20260508030052 43 124 1.0 2.0 0.00 0.00 0.00 100 1020.3
20260508024551 44 124 0.0 2.0 0.00 0.00 0.00 100 1020.3
20260508023045 44 124 0.0 1.0 0.00 0.00 0.00 100 1020.2
20260508021543 45 124 0.0 2.0 0.00 0.00 0.00 100 1020.3
20260508020043 46 125 0.0 0.0 0.00 0.00 0.00 100 1020.3
20260508014542 46 360 0.0 0.0 0.00 0.00 0.00 100 1020.0
20260508013041 47 360 0.0 0.0 0.00 0.00 0.00 100 1020.1
20260508011543 49 124 0.0 0.0 0.00 0.00 0.00 100 1019.9
20260508010042 51 360 0.0 0.0 0.00 0.00 0.00 100 1019.8
20260508004540 52 360 0.0 2.0 0.00 0.00 0.00 100 1019.8
20260508003039 53 360 0.0 1.0 0.00 0.00 0.00 100 1019.7
20260508001540 55 124 0.0 1.0 0.00 0.00 0.00 100 1019.5
20260508000039 56 124 0.0 1.0 0.00 0.00 0.00 100 1019.3
20260507234542 57 125 0.0 2.0 0.00 0.00 0.00 100 1019.2
20260507233038 58 113 0.0 3.0 0.00 0.00 0.00 100 1019.1
20260507231537 58 108 1.0 3.0 0.00 0.00 0.00 100 1019.4
20260507230036 58 338 2.0 6.0 0.00 0.00 0.00 100 1019.3
20260507224536 59 115 1.0 3.0 0.00 0.00 0.00 100 1019.3
20260507223036 58 150 1.0 7.0 0.00 0.00 0.00 100 1019.4
20260507221535 59 111 3.0 9.0 0.00 0.00 0.00 100 1019.5
20260507220034 59 109 3.0 7.0 0.00 0.00 0.00 100 1019.4
20260507214533 59 128 2.0 8.0 0.00 0.00 0.00 100 1019.3
20260507213037 59 121 2.0 7.0 0.00 0.00 0.00 100 1019.2
20260507211532 59 102 3.0 7.0 0.00 0.00 0.00 100 1019.2
20260507210032 60 113 2.0 9.0 0.00 0.00 0.00 100 1019.1
20260507204531 60 130 1.0 6.0 0.00 0.00 0.00 100 1019.0
20260507203032 59 108 3.0 11.0 0.00 0.00 0.00 100 1018.9
20260507201536 60 126 4.0 10.0 0.00 0.00 0.00 100 1018.9
20260507200027 60 132 5.0 12.0 0.00 0.00 0.00 100 1019.1
20260507194527 60 124 3.0 9.0 0.00 0.00 0.00 100 1019.1
20260507193031 60 73 3.0 10.0 0.00 0.00 0.00 100 1019.3
20260507191529 60 157 2.0 8.0 0.00 0.00 0.00 100 1019.2
20260507190029 60 76 3.0 9.0 0.00 0.00 0.00 100 1019.3
20260507184523 60 129 1.0 7.0 0.00 0.00 0.00 100 1019.4
20260507183033 59 10 2.0 13.0 0.00 0.00 0.00 100 1019.4
20260507181520 59 78 2.0 6.0 0.00 0.00 0.00 100 1019.5
20260507180019 59 174 2.0 5.0 0.00 0.00 0.00 100 1019.5
20260507174516 59 100 1.0 6.0 0.00 0.00 0.00 100 1019.8
20260507173015 58 115 2.0 8.0 0.00 0.00 0.00 100 1019.9
20260507171521 58 226 2.0 7.0 0.00 0.00 0.00 100 1020.1